• In United Kingdom
  • List of Countries
  • For 7 days
  • Water Temperature
  • Satellite Maps
  • Weather Map
  • Weather Widgets
  • user-avatar
    Login

    Hourly Weather Bouake

    Today, 22 September, Saturday

    Time Temperature Precipitation Wind Pressure Humidity
    00:00 +24°C° 0 mm 2 mps 730 mmHg 96%
    01:00 +24°C° 1.3 mm 2 mps 730 mmHg 97%
    02:00 +23°C° 1.3 mm 2 mps 729 mmHg 97%
    03:00 +23°C° 1.3 mm 2 mps 729 mmHg 97%
    04:00 +23°C° 0.2 mm 2 mps 729 mmHg 97%
    05:00 +23°C° 0.2 mm 1 mps 729 mmHg 98%
    06:00 +23°C° 0.2 mm 1 mps 729 mmHg 98%
    07:00 +24°C° 0 mm 2 mps 730 mmHg 95%
    08:00 +24°C° 0 mm 2 mps 730 mmHg 93%
    09:00 +25°C° 0 mm 2 mps 731 mmHg 91%
    10:00 +27°C° 0 mm 2 mps 730 mmHg 84%
    11:00 +28°C° 0 mm 2 mps 730 mmHg 78%
    12:00 +30°C° 0 mm 2 mps 729 mmHg 71%
    13:00 +30°C° 1 mm 2 mps 729 mmHg 73%
    14:00 +30°C° 1 mm 2 mps 728 mmHg 75%
    15:00 +30°C° 1 mm 1 mps 727 mmHg 77%
    16:00 +28°C° 2.6 mm 1 mps 727 mmHg 82%
    17:00 +27°C° 2.6 mm 1 mps 728 mmHg 87%
    18:00 +24°C° 2.6 mm 0 mps 728 mmHg 92%
    19:00 +25°C° 0.6 mm 1 mps 728 mmHg 93%
    20:00 +25°C° 0.6 mm 1 mps 729 mmHg 94%
    21:00 +24°C° 0.6 mm 1 mps 729 mmHg 95%
    22:00 +24°C° 0 mm 1 mps 730 mmHg 96%
    23:00 +24°C° 0 mm 1 mps 730 mmHg 96%

    Tomorrow, 23 September, Sunday

    Time Temperature Precipitation Wind Pressure Humidity
    00:00 +24°C° 0 mm 1 mps 730 mmHg 97%
    01:00 +23°C° 0 mm 1 mps 729 mmHg 97%
    02:00 +23°C° 0 mm 1 mps 729 mmHg 98%
    03:00 +23°C° 0 mm 1 mps 729 mmHg 98%
    04:00 +23°C° 0 mm 1 mps 729 mmHg 98%
    05:00 +23°C° 0 mm 1 mps 729 mmHg 98%
    06:00 +23°C° 0 mm 1 mps 729 mmHg 98%
    07:00 +24°C° 0 mm 1 mps 730 mmHg 96%
    08:00 +25°C° 0 mm 1 mps 730 mmHg 94%
    09:00 +25°C° 0 mm 1 mps 731 mmHg 92%
    10:00 +26°C° 0 mm 1 mps 730 mmHg 87%
    11:00 +28°C° 0 mm 1 mps 730 mmHg 82%
    12:00 +29°C° 0 mm 1 mps 730 mmHg 77%
    13:00 +29°C° 0 mm 1 mps 729 mmHg 76%
    14:00 +29°C° 0 mm 1 mps 729 mmHg 74%
    15:00 +30°C° 0 mm 1 mps 728 mmHg 72%
    16:00 +29°C° 0.5 mm 1 mps 728 mmHg 77%
    17:00 +28°C° 0.5 mm 1 mps 728 mmHg 81%
    18:00 +27°C° 0.5 mm 1 mps 728 mmHg 85%
    19:00 +26°C° 0.5 mm 1 mps 729 mmHg 87%
    20:00 +25°C° 0.5 mm 1 mps 729 mmHg 90%
    21:00 +25°C° 0.5 mm 1 mps 730 mmHg 92%
    22:00 +24°C° 0.6 mm 1 mps 730 mmHg 93%
    23:00 +24°C° 0.6 mm 1 mps 730 mmHg 93%

    Day after tomorrow, 24 September, Monday

    Time Temperature Precipitation Wind Pressure Humidity
    00:00 +24°C° 0.6 mm 1 mps 730 mmHg 94%
    01:00 +24°C° 0.2 mm 1 mps 730 mmHg 95%
    02:00 +24°C° 0.2 mm 1 mps 729 mmHg 95%
    03:00 +23°C° 0.2 mm 1 mps 729 mmHg 96%
    04:00 +23°C° 0.1 mm 1 mps 729 mmHg 96%
    05:00 +23°C° 0.1 mm 1 mps 729 mmHg 97%
    06:00 +23°C° 0.1 mm 1 mps 729 mmHg 97%
    07:00 +24°C° 0 mm 1 mps 730 mmHg 95%
    08:00 +25°C° 0 mm 1 mps 730 mmHg 93%
    09:00 +25°C° 0 mm 1 mps 731 mmHg 91%
    10:00 +27°C° 0.1 mm 1 mps 731 mmHg 87%
    11:00 +28°C° 0.1 mm 1 mps 731 mmHg 83%
    12:00 +29°C° 0.1 mm 1 mps 730 mmHg 78%
    13:00 +29°C° 0 mm 1 mps 730 mmHg 77%
    14:00 +28°C° 0 mm 0 mps 729 mmHg 75%
    15:00 +28°C° 0 mm 0 mps 728 mmHg 74%
    16:00 +27°C° 0 mm 0 mps 728 mmHg 77%
    17:00 +26°C° 0 mm 0 mps 728 mmHg 81%
    18:00 +25°C° 0 mm 0 mps 728 mmHg 85%
    19:00 +25°C° 0 mm 0 mps 729 mmHg 87%
    20:00 +24°C° 0 mm 0 mps 729 mmHg 89%
    21:00 +25°C° 0 mm 1 mps 730 mmHg 92%
    22:00 +25°C° 0 mm 1 mps 730 mmHg 93%
    23:00 +25°C° 0 mm 1 mps 730 mmHg 94%

    25 September, Tuesday

    Time Temperature Precipitation Wind Pressure Humidity
    00:00 +24°C° 0 mm 1 mps 730 mmHg 95%
    01:00 +24°C° 0 mm 1 mps 730 mmHg 95%
    02:00 +24°C° 0 mm 1 mps 729 mmHg 96%
    03:00 +24°C° 0 mm 1 mps 729 mmHg 97%
    04:00 +24°C° 0 mm 1 mps 729 mmHg 97%
    05:00 +23°C° 0 mm 2 mps 729 mmHg 98%
    06:00 +23°C° 0 mm 2 mps 729 mmHg 98%
    07:00 +24°C° 0 mm 2 mps 729 mmHg 95%
    08:00 +25°C° 0 mm 2 mps 730 mmHg 91%
    09:00 +26°C° 0 mm 3 mps 730 mmHg 87%
    10:00 +28°C° 0 mm 2 mps 730 mmHg 81%
    11:00 +29°C° 0 mm 2 mps 730 mmHg 76%
    12:00 +30°C° 0 mm 2 mps 729 mmHg 70%
    13:00 +31°C° 0.4 mm 2 mps 729 mmHg 70%
    14:00 +31°C° 0.4 mm 1 mps 728 mmHg 69%
    15:00 +31°C° 0.4 mm 1 mps 727 mmHg 69%
    16:00 +30°C° 0.2 mm 1 mps 727 mmHg 73%
    17:00 +29°C° 0.2 mm 1 mps 728 mmHg 77%
    18:00 +26°C° 0.2 mm 0 mps 728 mmHg 82%
    19:00 +27°C° 0.9 mm 1 mps 728 mmHg 85%
    20:00 +26°C° 0.9 mm 1 mps 729 mmHg 88%
    21:00 +25°C° 0.9 mm 1 mps 729 mmHg 92%
    22:00 +25°C° 1 mm 1 mps 729 mmHg 93%
    23:00 +25°C° 1 mm 1 mps 729 mmHg 95%

    26 September, Wednesday

    Time Temperature Precipitation Wind Pressure Humidity
    00:00 +24°C° 1 mm 1 mps 729 mmHg 96%
    01:00 +24°C° 0.2 mm 1 mps 729 mmHg 96%
    02:00 +24°C° 0.2 mm 1 mps 729 mmHg 97%
    03:00 +24°C° 0.2 mm 1 mps 728 mmHg 97%
    04:00 +24°C° 0.7 mm 1 mps 728 mmHg 97%
    05:00 +24°C° 0.7 mm 1 mps 729 mmHg 98%
    06:00 +24°C° 0.7 mm 1 mps 729 mmHg 98%
    07:00 +24°C° 0.2 mm 2 mps 730 mmHg 96%
    08:00 +25°C° 0.2 mm 2 mps 730 mmHg 95%
    09:00 +25°C° 0.2 mm 2 mps 731 mmHg 93%
    10:00 +27°C° 0.1 mm 2 mps 730 mmHg 87%
    11:00 +28°C° 0.1 mm 2 mps 730 mmHg 81%
    12:00 +30°C° 0.1 mm 1 mps 729 mmHg 75%
    13:00 +30°C° 0.6 mm 1 mps 728 mmHg 74%
    14:00 +30°C° 0.6 mm 1 mps 728 mmHg 74%
    15:00 +29°C° 0.6 mm 0 mps 727 mmHg 73%
    16:00 +27°C° 2.9 mm 0 mps 727 mmHg 79%
    17:00 +25°C° 2.9 mm 0 mps 727 mmHg 85%
    18:00 +24°C° 2.9 mm 0 mps 727 mmHg 91%
    19:00 +23°C° 1 mm 0 mps 728 mmHg 91%
    20:00 +23°C° 1 mm 0 mps 729 mmHg 91%
    21:00 +23°C° 1 mm 0 mps 730 mmHg 91%
    22:00 +22°C° 0.4 mm 0 mps 730 mmHg 92%
    23:00 +24°C° 0.4 mm 1 mps 730 mmHg 93%

    27 September, Thursday

    Time Temperature Precipitation Wind Pressure Humidity
    00:00 +24°C° 0.4 mm 1 mps 730 mmHg 93%
    01:00 +24°C° 0.2 mm 1 mps 729 mmHg 94%
    02:00 +24°C° 0.2 mm 1 mps 729 mmHg 95%
    03:00 +23°C° 0.2 mm 1 mps 728 mmHg 96%
    04:00 +23°C° 0 mm 1 mps 729 mmHg 97%
    05:00 +23°C° 0 mm 1 mps 729 mmHg 97%
    06:00 +23°C° 0 mm 1 mps 729 mmHg 97%
    07:00 +24°C° 0 mm 1 mps 730 mmHg 96%
    08:00 +25°C° 0 mm 1 mps 730 mmHg 94%
    09:00 +25°C° 0 mm 1 mps 731 mmHg 92%
    10:00 +27°C° 0 mm 2 mps 730 mmHg 85%
    11:00 +28°C° 0 mm 2 mps 730 mmHg 79%
    12:00 +30°C° 0 mm 2 mps 729 mmHg 73%
    13:00 +30°C° 0 mm 2 mps 729 mmHg 72%
    14:00 +30°C° 0 mm 2 mps 728 mmHg 71%
    15:00 +31°C° 0 mm 1 mps 727 mmHg 70%
    16:00 +30°C° 0 mm 1 mps 727 mmHg 75%
    17:00 +29°C° 0 mm 1 mps 728 mmHg 79%
    18:00 +28°C° 0 mm 1 mps 728 mmHg 84%
    19:00 +27°C° 0 mm 1 mps 728 mmHg 85%
    20:00 +26°C° 0 mm 1 mps 729 mmHg 86%
    21:00 +26°C° 0 mm 1 mps 729 mmHg 88%
    22:00 +25°C° 0 mm 1 mps 729 mmHg 89%
    23:00 +25°C° 0 mm 1 mps 729 mmHg 91%
    Show more